Youngstown, OH

3:56 AM EST on December 14, 2017 (GMT -0500)
Youngstown-Warren Regional

Weather History for KYNG - December, 2011

Change the Weather History Date:

Monday, December 26, 2011

  Actual Average Record
Temperature  
Mean Temperature 38 °F 27 °F  
Max Temperature 42 °F 34 °F 64 °F (1982)
Min Temperature 34 °F 21 °F -6 °F (1983)
Degree Days  
Heating Degree Days 27 38  
Month to date heating degree days 754 886  
Since 1 July heating degree days 1859 2215  
Cooling Degree Days 0 0  
Month to date cooling degree days 0 0  
Year to date cooling degree days 731 544  
Moisture  
Dew Point 26 °F    
Average Humidity 63    
Maximum Humidity 75    
Minimum Humidity 51    
Precipitation  
Precipitation T in 0.09 in 0.81 in (2012)
Month to date precipitation 3.70 2.53  
Year to date precipitation 53.29 38.45  
Snow  
Snow T in 0.50 in - ()
Month to date snowfall 5.8 12.4  
Since 1 July snowfall 8.2 16.8  
Snow Depth 0.00 in    
Sea Level Pressure  
Sea Level Pressure 30.23 in    
Wind  
Wind Speed 8 mph (WSW)    
Max Wind Speed 16 mph    
Max Gust Speed 21 mph    
Visibility 10 miles    
Events Snow    
T = Trace of Precipitation, MM = Missing Value Source: NWS Daily Summary

Daily Weather History Graph

Daily Weather History Graph

Search for Another Location

Airport or City:

Trip Planner

Search our weather history database for the weather conditions in past years. The results will help you decide how hot, cold, wet, or windy it might be!

Date:

Astronomy

Dec. 26, 2011 Rise Set
Actual Time 7:47 AM EST 4:59 PM EST
Civil Twilight 7:15 AM EST 5:30 PM EST
Nautical Twilight 6:40 AM EST 6:05 PM EST
Astronomical Twilight 6:07 AM EST 6:39 PM EST
Moon 9:05 AM EST (12/26) 7:27 PM EST (12/26)
Length of Visible Light 10h 15m
Length of Day
9h 12m
Waxing Crescent, 5% of the Moon is Illuminated
Dec 26
Waxing Crescent
Jan 1
First Quarter
Jan 9
Full
Jan 16
Last Quarter
Jan 23
New

Hourly Weather History & Observations

Time (EST) Temp. Windchill Dew Point Humidity Pressure Visibility Wind Dir Wind Speed Gust Speed Precip Events Conditions
12:51 AM 37.4 °F 30.3 °F 28.4 °F 70% 30.14 in 10.0 mi WNW 10.4 mph 19.6 mph N/A   Overcast
1:51 AM 36.0 °F 29.0 °F 28.0 °F 73% 30.20 in 10.0 mi WNW 9.2 mph - 0.00 in Snow Light Snow
2:06 AM 35.6 °F 27.5 °F 28.4 °F 75% 30.20 in 6.0 mi WNW 11.5 mph - 0.00 in Snow Light Ice Pellets
2:09 AM 35.6 °F 28.0 °F 30.2 °F 81% 30.19 in 10.0 mi WNW 10.4 mph - 0.00 in Snow Light Snow
2:51 AM 36.0 °F 29.6 °F 28.9 °F 76% 30.24 in 10.0 mi NW 8.1 mph - 0.00 in   Overcast
3:13 AM 35.6 °F 30.7 °F 28.4 °F 75% 30.22 in 10.0 mi West 5.8 mph - N/A   Overcast
3:51 AM 35.1 °F 31.0 °F 28.0 °F 76% 30.25 in 10.0 mi WNW 4.6 mph - N/A   Overcast
4:51 AM 35.1 °F 30.1 °F 27.0 °F 72% 30.25 in 10.0 mi WNW 5.8 mph - N/A   Overcast
4:58 AM 35.6 °F 30.7 °F 26.6 °F 70% 30.23 in 10.0 mi West 5.8 mph - N/A   Overcast
5:09 AM 35.6 °F 31.7 °F 26.6 °F 70% 30.23 in 10.0 mi WNW 4.6 mph - N/A   Overcast
5:51 AM 34.0 °F 29.8 °F 27.0 °F 75% 30.28 in 10.0 mi West 4.6 mph - N/A   Overcast
6:51 AM 34.0 °F 29.8 °F 27.0 °F 75% 30.31 in 10.0 mi WSW 4.6 mph - N/A   Overcast
7:51 AM 35.1 °F 26.9 °F 27.0 °F 72% 30.34 in 10.0 mi WSW 11.5 mph - N/A   Overcast
8:51 AM 35.1 °F 27.4 °F 27.0 °F 72% 30.35 in 10.0 mi West 10.4 mph - N/A   Overcast
9:51 AM 36.0 °F 29.6 °F 26.1 °F 67% 30.36 in 10.0 mi West 8.1 mph - N/A   Overcast
10:51 AM 37.0 °F 29.8 °F 25.0 °F 62% 30.37 in 10.0 mi WSW 10.4 mph - N/A   Overcast
11:51 AM 39.0 °F 34.0 °F 26.1 °F 60% 30.32 in 10.0 mi West 6.9 mph - N/A   Mostly Cloudy
12:51 PM 39.9 °F 35.1 °F 25.0 °F 55% 30.28 in 10.0 mi WSW 6.9 mph - N/A   Partly Cloudy
1:51 PM 42.1 °F 36.6 °F 26.1 °F 53% 30.26 in 10.0 mi SSW 9.2 mph - N/A   Partly Cloudy
2:51 PM 42.1 °F 37.7 °F 26.1 °F 53% 30.24 in 10.0 mi SSW 6.9 mph 16.1 mph N/A   Partly Cloudy
3:51 PM 41.0 °F 35.2 °F 25.0 °F 53% 30.25 in 10.0 mi South 9.2 mph - N/A   Mostly Cloudy
4:51 PM 39.9 °F 34.5 °F 25.0 °F 55% 30.22 in 10.0 mi South 8.1 mph - N/A   Mostly Cloudy
5:51 PM 37.0 °F 31.6 °F 25.0 °F 62% 30.19 in 10.0 mi SSE 6.9 mph - N/A   Mostly Cloudy
6:51 PM 36.0 °F 29.6 °F 25.0 °F 64% 30.17 in 10.0 mi South 8.1 mph - N/A   Mostly Cloudy
7:51 PM 36.0 °F 30.3 °F 25.0 °F 64% 30.17 in 10.0 mi South 6.9 mph - N/A   Mostly Cloudy
8:51 PM 35.1 °F 30.1 °F 25.0 °F 67% 30.14 in 10.0 mi SSE 5.8 mph - N/A   Mostly Cloudy
9:51 PM 35.1 °F 30.1 °F 25.0 °F 67% 30.09 in 10.0 mi SSE 5.8 mph - N/A   Mostly Cloudy
10:51 PM 35.1 °F 28.6 °F 25.0 °F 67% 30.06 in 10.0 mi SSE 8.1 mph - N/A   Overcast
11:51 PM 36.0 °F 29.0 °F 25.0 °F 64% 30.02 in 10.0 mi SSE 9.2 mph - N/A   Overcast